owner,sensor,date,latitude,longitude,vertical_datum,wind_speed,wind_to_direction,wind_speed_of_gust,qcFlag 
WAVCIS,ioos:station:WAVCIS:CSI03:3,2016-04-01T00:00:00Z,29.4412,-92.0613,10.0,5.1,170.0,8.2,'11111222,11111222,11111222' 
WAVCIS,ioos:station:WAVCIS:CSI03:3,2016-04-01T01:00:00Z,29.4412,-92.0613,10.0,3.1,170.0,5.7,'11111222,11111222,11111222' 
WAVCIS,ioos:station:WAVCIS:CSI03:3,2016-04-01T02:00:00Z,29.4412,-92.0613,10.0,5.311,182.0,,'11111222,11111222,99999999' 
WAVCIS,ioos:station:WAVCIS:CSI03:3,2016-04-01T03:00:00Z,29.4412,-92.0613,10.0,5.293,182.0,,'11111222,11111222,99999999' 
WAVCIS,ioos:station:WAVCIS:CSI03:3,2016-04-01T04:00:00Z,29.4412,-92.0613,10.0,2.422,208.0,,'11111222,11111222,99999999' 
WAVCIS,ioos:station:WAVCIS:CSI03:3,2016-04-01T05:00:00Z,29.4412,-92.0613,10.0,3.345,206.0,,'11111222,11111222,99999999' 
WAVCIS,ioos:station:WAVCIS:CSI03:3,2016-04-01T06:00:00Z,29.4412,-92.0613,10.0,0.628,207.0,,'11111222,11111222,99999999' 
WAVCIS,ioos:station:WAVCIS:CSI03:3,2016-04-01T07:00:00Z,29.4412,-92.0613,10.0,1.07,199.0,,'11111222,11111222,99999999' 
WAVCIS,ioos:station:WAVCIS:CSI03:3,2016-04-01T08:00:00Z,29.4412,-92.0613,10.0,2.871,197.0,,'11111222,11111222,99999999' 
WAVCIS,ioos:station:WAVCIS:CSI03:3,2016-04-01T09:00:00Z,29.4412,-92.0613,10.0,0.909,209.0,,'11111222,11111222,99999999' 
WAVCIS,ioos:station:WAVCIS:CSI03:3,2016-04-01T10:00:00Z,29.4412,-92.0613,10.0,0.575,205.0,,'11111222,11111222,99999999' 
WAVCIS,ioos:station:WAVCIS:CSI03:3,2016-04-01T11:00:00Z,29.4412,-92.0613,10.0,1.948,302.0,,'11111222,11111222,99999999' 
WAVCIS,ioos:station:WAVCIS:CSI03:3,2016-04-01T12:00:00Z,29.4412,-92.0613,10.0,1.269,68.0,,'11111222,11111222,99999999' 
WAVCIS,ioos:station:WAVCIS:CSI03:3,2016-04-01T13:00:00Z,29.4412,-92.0613,10.0,4.782,31.0,,'11111222,11111222,99999999' 
WAVCIS,ioos:station:WAVCIS:CSI03:3,2016-04-01T14:00:00Z,29.4412,-92.0613,10.0,8.46,44.0,,'11111222,11111222,99999999' 
WAVCIS,ioos:station:WAVCIS:CSI03:3,2016-04-01T15:00:00Z,29.4412,-92.0613,10.0,10.86,44.0,,'11111222,11111222,99999999' 
WAVCIS,ioos:station:WAVCIS:CSI03:3,2016-04-01T16:00:00Z,29.4412,-92.0613,10.0,12.37,56.0,,'11111222,11111222,99999999' 
WAVCIS,ioos:station:WAVCIS:CSI03:3,2016-04-01T17:00:00Z,29.4412,-92.0613,10.0,10.51,45.0,,'11111222,11111222,99999999' 
WAVCIS,ioos:station:WAVCIS:CSI03:3,2016-04-01T18:00:00Z,29.4412,-92.0613,10.0,11.08,51.0,,'11111222,11111222,99999999' 
WAVCIS,ioos:station:WAVCIS:CSI03:3,2016-04-01T19:00:00Z,29.4412,-92.0613,10.0,10.63,45.0,,'11111222,11111222,99999999' 
WAVCIS,ioos:station:WAVCIS:CSI03:3,2016-04-01T20:00:00Z,29.4412,-92.0613,10.0,10.94,19.0,,'11111222,11111222,99999999' 
WAVCIS,ioos:station:WAVCIS:CSI03:3,2016-04-01T21:00:00Z,29.4412,-92.0613,10.0,9.83,37.0,,'11111222,11111222,99999999' 
WAVCIS,ioos:station:WAVCIS:CSI03:3,2016-04-01T22:00:00Z,29.4412,-92.0613,10.0,10.97,46.0,,'11111222,11111222,99999999' 
WAVCIS,ioos:station:WAVCIS:CSI03:3,2016-04-01T23:00:00Z,29.4412,-92.0613,10.0,10.84,39.0,,'11111222,11111222,99999999' 
WAVCIS,ioos:station:WAVCIS:CSI03:3,2016-04-02T00:00:00Z,29.4412,-92.0613,10.0,11.22,34.0,,'11111222,11111222,99999999' 
WAVCIS,ioos:station:WAVCIS:CSI03:3,2016-04-02T01:00:00Z,29.4412,-92.0613,10.0,10.45,23.0,,'11111222,11111222,99999999' 
WAVCIS,ioos:station:WAVCIS:CSI03:3,2016-04-02T02:00:00Z,29.4412,-92.0613,10.0,10.24,26.0,,'11111222,11111222,99999999' 
WAVCIS,ioos:station:WAVCIS:CSI03:3,2016-04-02T03:00:00Z,29.4412,-92.0613,10.0,10.59,27.0,,'11111222,11111222,99999999' 
WAVCIS,ioos:station:WAVCIS:CSI03:3,2016-04-02T04:00:00Z,29.4412,-92.0613,10.0,9.89,34.0,,'11111222,11111222,99999999' 
WAVCIS,ioos:station:WAVCIS:CSI03:3,2016-04-02T05:00:00Z,29.4412,-92.0613,10.0,9.46,26.0,,'11111222,11111222,99999999' 
WAVCIS,ioos:station:WAVCIS:CSI03:3,2016-04-02T06:00:00Z,29.4412,-92.0613,10.0,9.5,30.0,,'11111222,11111222,99999999' 
WAVCIS,ioos:station:WAVCIS:CSI03:3,2016-04-02T07:00:00Z,29.4412,-92.0613,10.0,8.16,11.0,,'11111222,11111222,99999999' 
WAVCIS,ioos:station:WAVCIS:CSI03:3,2016-04-02T08:00:00Z,29.4412,-92.0613,10.0,8.56,10.0,,'11111222,11111222,99999999' 
WAVCIS,ioos:station:WAVCIS:CSI03:3,2016-04-02T09:00:00Z,29.4412,-92.0613,10.0,8.87,6.0,,'11111222,11111222,99999999' 
WAVCIS,ioos:station:WAVCIS:CSI03:3,2016-04-02T10:00:00Z,29.4412,-92.0613,10.0,9.36,16.0,,'11111222,11111222,99999999' 
WAVCIS,ioos:station:WAVCIS:CSI03:3,2016-04-02T11:00:00Z,29.4412,-92.0613,10.0,8.1,18.0,,'11111222,11111222,99999999' 
WAVCIS,ioos:station:WAVCIS:CSI03:3,2016-04-02T12:00:00Z,29.4412,-92.0613,10.0,7.5,10.0,,'11111222,11111222,99999999' 
WAVCIS,ioos:station:WAVCIS:CSI03:3,2016-04-02T13:00:00Z,29.4412,-92.0613,10.0,7.57,8.0,,'11111222,11111222,99999999' 
WAVCIS,ioos:station:WAVCIS:CSI03:3,2016-04-02T14:00:00Z,29.4412,-92.0613,10.0,7.3,7.0,,'11111222,11111222,99999999' 
WAVCIS,ioos:station:WAVCIS:CSI03:3,2016-04-02T15:00:00Z,29.4412,-92.0613,10.0,6.46,8.0,,'11111222,11111222,99999999' 
WAVCIS,ioos:station:WAVCIS:CSI03:3,2016-04-02T16:00:00Z,29.4412,-92.0613,10.0,5.157,12.0,,'11111222,11111222,99999999' 
WAVCIS,ioos:station:WAVCIS:CSI03:3,2016-04-02T17:00:00Z,29.4412,-92.0613,10.0,4.384,22.0,,'11111222,11111222,99999999' 
WAVCIS,ioos:station:WAVCIS:CSI03:3,2016-04-02T18:00:00Z,29.4412,-92.0613,10.0,5.798,18.0,,'11111222,11111222,99999999' 
WAVCIS,ioos:station:WAVCIS:CSI03:3,2016-04-02T19:00:00Z,29.4412,-92.0613,10.0,5.827,9.0,,'11111222,11111222,99999999' 
WAVCIS,ioos:station:WAVCIS:CSI03:3,2016-04-02T20:00:00Z,29.4412,-92.0613,10.0,6.216,0.0,,'11111222,11111222,99999999' 
WAVCIS,ioos:station:WAVCIS:CSI03:3,2016-04-02T21:00:00Z,29.4412,-92.0613,10.0,5.48,25.0,,'11111222,11111222,99999999' 
WAVCIS,ioos:station:WAVCIS:CSI03:3,2016-04-02T22:00:00Z,29.4412,-92.0613,10.0,6.067,354.0,,'11111222,11111222,99999999' 
WAVCIS,ioos:station:WAVCIS:CSI03:3,2016-04-02T23:00:00Z,29.4412,-92.0613,10.0,5.894,354.0,,'11111222,11111222,99999999' 
WAVCIS,ioos:station:WAVCIS:CSI03:3,2016-04-03T00:00:00Z,29.4412,-92.0613,10.0,5.362,354.0,,'11111222,11111222,99999999' 
WAVCIS,ioos:station:WAVCIS:CSI03:3,2016-04-03T01:00:00Z,29.4412,-92.0613,10.0,5.807,3.0,,'11111222,11111222,99999999' 
WAVCIS,ioos:station:WAVCIS:CSI03:3,2016-04-03T02:00:00Z,29.4412,-92.0613,10.0,6.479,25.0,,'11111222,11111222,99999999' 
WAVCIS,ioos:station:WAVCIS:CSI03:3,2016-04-03T03:00:00Z,29.4412,-92.0613,10.0,5.782,18.0,,'11111222,11111222,99999999' 
WAVCIS,ioos:station:WAVCIS:CSI03:3,2016-04-03T04:00:00Z,29.4412,-92.0613,10.0,5.744,15.0,,'11111222,11111222,99999999' 
WAVCIS,ioos:station:WAVCIS:CSI03:3,2016-04-03T05:00:00Z,29.4412,-92.0613,10.0,4.603,6.0,,'11111222,11111222,99999999' 
WAVCIS,ioos:station:WAVCIS:CSI03:3,2016-04-03T06:00:00Z,29.4412,-92.0613,10.0,5.021,7.0,,'11111222,11111222,99999999' 
WAVCIS,ioos:station:WAVCIS:CSI03:3,2016-04-03T07:00:00Z,29.4412,-92.0613,10.0,4.923,29.0,,'11111222,11111222,99999999' 
WAVCIS,ioos:station:WAVCIS:CSI03:3,2016-04-03T08:00:00Z,29.4412,-92.0613,10.0,4.012,35.0,,'11111222,11111222,99999999' 
WAVCIS,ioos:station:WAVCIS:CSI03:3,2016-04-03T09:00:00Z,29.4412,-92.0613,10.0,3.615,35.0,,'11111222,11111222,99999999' 
WAVCIS,ioos:station:WAVCIS:CSI03:3,2016-04-03T10:00:00Z,29.4412,-92.0613,10.0,3.28,35.0,,'11111222,11111222,99999999' 
WAVCIS,ioos:station:WAVCIS:CSI03:3,2016-04-03T11:00:00Z,29.4412,-92.0613,10.0,3.518,35.0,,'11111222,11111222,99999999' 
WAVCIS,ioos:station:WAVCIS:CSI03:3,2016-04-03T12:00:00Z,29.4412,-92.0613,10.0,3.713,35.0,,'11111222,11111222,99999999' 
WAVCIS,ioos:station:WAVCIS:CSI03:3,2016-04-03T13:00:00Z,29.4412,-92.0613,10.0,3.421,35.0,,'11111222,11111222,99999999' 
WAVCIS,ioos:station:WAVCIS:CSI03:3,2016-04-03T14:00:00Z,29.4412,-92.0613,10.0,2.436,35.0,,'11111222,11111222,99999999' 
WAVCIS,ioos:station:WAVCIS:CSI03:3,2016-04-03T15:00:00Z,29.4412,-92.0613,10.0,1.451,35.0,,'11111222,11111222,99999999' 
WAVCIS,ioos:station:WAVCIS:CSI03:3,2016-04-03T16:00:00Z,29.4412,-92.0613,10.0,0.611,35.0,,'11111222,11111222,99999999' 
WAVCIS,ioos:station:WAVCIS:CSI03:3,2016-04-03T17:00:00Z,29.4412,-92.0613,10.0,0.188,347.0,,'11111222,11111222,99999999' 
WAVCIS,ioos:station:WAVCIS:CSI03:3,2016-04-03T18:00:00Z,29.4412,-92.0613,10.0,0.31,347.0,,'11111222,11111222,99999999' 
WAVCIS,ioos:station:WAVCIS:CSI03:3,2016-04-03T19:00:00Z,29.4412,-92.0613,10.0,0.253,345.0,,'11111222,11111222,99999999' 
WAVCIS,ioos:station:WAVCIS:CSI03:3,2016-04-03T20:00:00Z,29.4412,-92.0613,10.0,1.87,158.0,,'11111222,11111222,99999999' 
WAVCIS,ioos:station:WAVCIS:CSI03:3,2016-04-03T21:00:00Z,29.4412,-92.0613,10.0,2.364,170.0,,'11111222,11111222,99999999' 
WAVCIS,ioos:station:WAVCIS:CSI03:3,2016-04-03T22:00:00Z,29.4412,-92.0613,10.0,2.36,177.0,,'11111222,11111222,99999999' 
WAVCIS,ioos:station:WAVCIS:CSI03:3,2016-04-03T23:00:00Z,29.4412,-92.0613,10.0,2.059,189.0,,'11111222,11111222,99999999' 
WAVCIS,ioos:station:WAVCIS:CSI03:3,2016-04-04T00:00:00Z,29.4412,-92.0613,10.0,2.233,200.0,,'11111222,11111222,99999999' 
WAVCIS,ioos:station:WAVCIS:CSI03:3,2016-04-04T01:00:00Z,29.4412,-92.0613,10.0,1.255,231.0,,'11111222,11111222,99999999' 
WAVCIS,ioos:station:WAVCIS:CSI03:3,2016-04-04T02:00:00Z,29.4412,-92.0613,10.0,2.326,238.0,,'11111222,11111222,99999999' 
WAVCIS,ioos:station:WAVCIS:CSI03:3,2016-04-04T03:00:00Z,29.4412,-92.0613,10.0,1.567,235.0,,'11111222,11111222,99999999' 
WAVCIS,ioos:station:WAVCIS:CSI03:3,2016-04-04T04:00:00Z,29.4412,-92.0613,10.0,2.131,247.0,,'11111222,11111222,99999999' 
WAVCIS,ioos:station:WAVCIS:CSI03:3,2016-04-04T05:00:00Z,29.4412,-92.0613,10.0,2.301,242.0,,'11111222,11111222,99999999' 
WAVCIS,ioos:station:WAVCIS:CSI03:3,2016-04-04T06:00:00Z,29.4412,-92.0613,10.0,3.127,231.0,,'11111222,11111222,99999999' 
WAVCIS,ioos:station:WAVCIS:CSI03:3,2016-04-04T07:00:00Z,29.4412,-92.0613,10.0,3.012,238.0,,'11111222,11111222,99999999' 
WAVCIS,ioos:station:WAVCIS:CSI03:3,2016-04-04T08:00:00Z,29.4412,-92.0613,10.0,3.33,253.0,,'11111222,11111222,99999999' 
WAVCIS,ioos:station:WAVCIS:CSI03:3,2016-04-04T09:00:00Z,29.4412,-92.0613,10.0,4.677,269.0,,'11111222,11111222,99999999' 
WAVCIS,ioos:station:WAVCIS:CSI03:3,2016-04-04T10:00:00Z,29.4412,-92.0613,10.0,4.685,271.0,,'11111222,11111222,99999999' 
WAVCIS,ioos:station:WAVCIS:CSI03:3,2016-04-04T11:00:00Z,29.4412,-92.0613,10.0,3.486,277.0,,'11111222,11111222,99999999' 
WAVCIS,ioos:station:WAVCIS:CSI03:3,2016-04-04T12:00:00Z,29.4412,-92.0613,10.0,2.288,279.0,,'11111222,11111222,99999999' 
WAVCIS,ioos:station:WAVCIS:CSI03:3,2016-04-04T13:00:00Z,29.4412,-92.0613,10.0,2.482,277.0,,'11111222,11111222,99999999' 
WAVCIS,ioos:station:WAVCIS:CSI03:3,2016-04-04T14:00:00Z,29.4412,-92.0613,10.0,2.177,323.0,,'11111222,11111222,99999999' 
WAVCIS,ioos:station:WAVCIS:CSI03:3,2016-04-04T15:00:00Z,29.4412,-92.0613,10.0,1.834,344.0,,'11111222,11111222,99999999' 
WAVCIS,ioos:station:WAVCIS:CSI03:3,2016-04-04T16:00:00Z,29.4412,-92.0613,10.0,1.404,348.0,,'11111222,11111222,99999999' 
WAVCIS,ioos:station:WAVCIS:CSI03:3,2016-04-04T17:00:00Z,29.4412,-92.0613,10.0,1.88,283.0,,'11111222,11111222,99999999' 
WAVCIS,ioos:station:WAVCIS:CSI03:3,2016-04-04T18:00:00Z,29.4412,-92.0613,10.0,2.633,258.0,,'11111222,11111222,99999999' 
WAVCIS,ioos:station:WAVCIS:CSI03:3,2016-04-04T19:00:00Z,29.4412,-92.0613,10.0,2.026,241.0,,'11111222,11111222,99999999' 
WAVCIS,ioos:station:WAVCIS:CSI03:3,2016-04-04T20:00:00Z,29.4412,-92.0613,10.0,2.575,239.0,,'11111222,11111222,99999999' 
WAVCIS,ioos:station:WAVCIS:CSI03:3,2016-04-04T21:00:00Z,29.4412,-92.0613,10.0,2.316,238.0,,'11111222,11111222,99999999' 
WAVCIS,ioos:station:WAVCIS:CSI03:3,2016-04-04T22:00:00Z,29.4412,-92.0613,10.0,1.963,249.0,,'11111222,11111222,99999999' 
WAVCIS,ioos:station:WAVCIS:CSI03:3,2016-04-04T23:00:00Z,29.4412,-92.0613,10.0,2.621,246.0,,'11111222,11111222,99999999' 
WAVCIS,ioos:station:WAVCIS:CSI03:3,2016-04-05T00:00:00Z,29.4412,-92.0613,10.0,2.959,247.0,,'11111222,11111222,99999999' 
WAVCIS,ioos:station:WAVCIS:CSI03:3,2016-04-05T01:00:00Z,29.4412,-92.0613,10.0,2.83,249.0,,'11111222,11111222,99999999' 
WAVCIS,ioos:station:WAVCIS:CSI03:3,2016-04-05T02:00:00Z,29.4412,-92.0613,10.0,2.859,248.0,,'11111222,11111222,99999999' 
WAVCIS,ioos:station:WAVCIS:CSI03:3,2016-04-05T03:00:00Z,29.4412,-92.0613,10.0,3.807,253.0,,'11111222,11111222,99999999' 
WAVCIS,ioos:station:WAVCIS:CSI03:3,2016-04-05T04:00:00Z,29.4412,-92.0613,10.0,5.431,263.0,,'11111222,11111222,99999999' 
WAVCIS,ioos:station:WAVCIS:CSI03:3,2016-04-05T05:00:00Z,29.4412,-92.0613,10.0,4.843,263.0,,'11111222,11111222,99999999' 
WAVCIS,ioos:station:WAVCIS:CSI03:3,2016-04-05T06:00:00Z,29.4412,-92.0613,10.0,4.785,261.0,,'11111222,11111222,99999999' 
WAVCIS,ioos:station:WAVCIS:CSI03:3,2016-04-05T07:00:00Z,29.4412,-92.0613,10.0,3.855,259.0,,'11111222,11111222,99999999' 
WAVCIS,ioos:station:WAVCIS:CSI03:3,2016-04-05T08:00:00Z,29.4412,-92.0613,10.0,4.14,271.0,,'11111222,11111222,99999999' 
WAVCIS,ioos:station:WAVCIS:CSI03:3,2016-04-05T09:00:00Z,29.4412,-92.0613,10.0,3.723,275.0,,'11111222,11111222,99999999' 
WAVCIS,ioos:station:WAVCIS:CSI03:3,2016-04-05T10:00:00Z,29.4412,-92.0613,10.0,3.272,281.0,,'11111222,11111222,99999999' 
WAVCIS,ioos:station:WAVCIS:CSI03:3,2016-04-05T11:00:00Z,29.4412,-92.0613,10.0,2.343,279.0,,'11111222,11111222,99999999' 
WAVCIS,ioos:station:WAVCIS:CSI03:3,2016-04-05T12:00:00Z,29.4412,-92.0613,10.0,3.346,328.0,,'11111222,11111222,99999999' 
WAVCIS,ioos:station:WAVCIS:CSI03:3,2016-04-05T13:00:00Z,29.4412,-92.0613,10.0,2.573,336.0,,'11111222,11111222,99999999' 
WAVCIS,ioos:station:WAVCIS:CSI03:3,2016-04-05T14:00:00Z,29.4412,-92.0613,10.0,2.677,336.0,,'11111222,11111222,99999999' 
WAVCIS,ioos:station:WAVCIS:CSI03:3,2016-04-05T15:00:00Z,29.4412,-92.0613,10.0,1.545,332.0,,'11111222,11111222,99999999' 
WAVCIS,ioos:station:WAVCIS:CSI03:3,2016-04-05T16:00:00Z,29.4412,-92.0613,10.0,2.435,280.0,,'11111222,11111222,99999999' 
WAVCIS,ioos:station:WAVCIS:CSI03:3,2016-04-05T17:00:00Z,29.4412,-92.0613,10.0,2.154,272.0,,'11111222,11111222,99999999' 
WAVCIS,ioos:station:WAVCIS:CSI03:3,2016-04-05T18:00:00Z,29.4412,-92.0613,10.0,1.414,253.0,,'11111222,11111222,99999999' 
WAVCIS,ioos:station:WAVCIS:CSI03:3,2016-04-05T19:00:00Z,29.4412,-92.0613,10.0,2.292,254.0,,'11111222,11111222,99999999' 
WAVCIS,ioos:station:WAVCIS:CSI03:3,2016-04-05T20:00:00Z,29.4412,-92.0613,10.0,0.849,242.0,,'11111222,11111222,99999999' 
WAVCIS,ioos:station:WAVCIS:CSI03:3,2016-04-05T21:00:00Z,29.4412,-92.0613,10.0,2.62,236.0,,'11111222,11111222,99999999' 
WAVCIS,ioos:station:WAVCIS:CSI03:3,2016-04-05T22:00:00Z,29.4412,-92.0613,10.0,2.674,247.0,,'11111222,11111222,99999999' 
WAVCIS,ioos:station:WAVCIS:CSI03:3,2016-04-05T23:00:00Z,29.4412,-92.0613,10.0,0.318,248.0,,'11111222,11111222,99999999' 
WAVCIS,ioos:station:WAVCIS:CSI03:3,2016-04-06T00:00:00Z,29.4412,-92.0613,10.0,0.714,192.0,,'11111222,11111222,99999999' 
WAVCIS,ioos:station:WAVCIS:CSI03:3,2016-04-06T01:00:00Z,29.4412,-92.0613,10.0,0.307,238.0,,'11111222,11111222,99999999' 
WAVCIS,ioos:station:WAVCIS:CSI03:3,2016-04-06T02:00:00Z,29.4412,-92.0613,10.0,0.985,199.0,,'11111222,11111222,99999999' 
WAVCIS,ioos:station:WAVCIS:CSI03:3,2016-04-06T03:00:00Z,29.4412,-92.0613,10.0,0.114,238.0,,'11111222,11111222,99999999' 
WAVCIS,ioos:station:WAVCIS:CSI03:3,2016-04-06T04:00:00Z,29.4412,-92.0613,10.0,1.631,188.0,,'11111222,11111222,99999999' 
WAVCIS,ioos:station:WAVCIS:CSI03:3,2016-04-06T05:00:00Z,29.4412,-92.0613,10.0,2.527,194.0,,'11111222,11111222,99999999' 
WAVCIS,ioos:station:WAVCIS:CSI03:3,2016-04-06T06:00:00Z,29.4412,-92.0613,10.0,2.443,196.0,,'11111222,11111222,99999999' 
WAVCIS,ioos:station:WAVCIS:CSI03:3,2016-04-06T07:00:00Z,29.4412,-92.0613,10.0,3.675,203.0,,'11111222,11111222,99999999' 
WAVCIS,ioos:station:WAVCIS:CSI03:3,2016-04-06T08:00:00Z,29.4412,-92.0613,10.0,3.174,197.0,,'11111222,11111222,99999999' 
WAVCIS,ioos:station:WAVCIS:CSI03:3,2016-04-06T09:00:00Z,29.4412,-92.0613,10.0,3.725,198.0,,'11111222,11111222,99999999' 
WAVCIS,ioos:station:WAVCIS:CSI03:3,2016-04-06T10:00:00Z,29.4412,-92.0613,10.0,4.2,199.0,,'11111222,11111222,99999999' 
WAVCIS,ioos:station:WAVCIS:CSI03:3,2016-04-06T11:00:00Z,29.4412,-92.0613,10.0,3.068,192.0,,'11111222,11111222,99999999' 
WAVCIS,ioos:station:WAVCIS:CSI03:3,2016-04-06T12:00:00Z,29.4412,-92.0613,10.0,4.438,203.0,,'11111222,11111222,99999999' 
WAVCIS,ioos:station:WAVCIS:CSI03:3,2016-04-06T13:00:00Z,29.4412,-92.0613,10.0,5.281,205.0,,'11111222,11111222,99999999' 
WAVCIS,ioos:station:WAVCIS:CSI03:3,2016-04-06T14:00:00Z,29.4412,-92.0613,10.0,5.357,204.0,,'11111222,11111222,99999999' 
WAVCIS,ioos:station:WAVCIS:CSI03:3,2016-04-06T15:00:00Z,29.4412,-92.0613,10.0,5.7,210.0,8.2,'11111222,11111222,11111222' 
WAVCIS,ioos:station:WAVCIS:CSI03:3,2016-04-06T16:00:00Z,29.4412,-92.0613,10.0,2.1,230.0,4.6,'11111222,11111222,11111222' 
WAVCIS,ioos:station:WAVCIS:CSI03:3,2016-04-06T17:00:00Z,29.4412,-92.0613,10.0,3.6,240.0,5.7,'11111222,11111222,11111222' 
WAVCIS,ioos:station:WAVCIS:CSI03:3,2016-04-06T18:00:00Z,29.4412,-92.0613,10.0,4.213,255.0,,'11111222,11111222,99999999' 
WAVCIS,ioos:station:WAVCIS:CSI03:3,2016-04-06T19:00:00Z,29.4412,-92.0613,10.0,3.033,240.0,,'11111222,11111222,99999999' 
WAVCIS,ioos:station:WAVCIS:CSI03:3,2016-04-06T20:00:00Z,29.4412,-92.0613,10.0,4.007,249.0,,'11111222,11111222,99999999' 
WAVCIS,ioos:station:WAVCIS:CSI03:3,2016-04-06T21:00:00Z,29.4412,-92.0613,10.0,4.106,247.0,,'11111222,11111222,99999999' 
WAVCIS,ioos:station:WAVCIS:CSI03:3,2016-04-06T22:00:00Z,29.4412,-92.0613,10.0,7.12,263.0,,'11111222,11111222,99999999' 
WAVCIS,ioos:station:WAVCIS:CSI03:3,2016-04-06T23:00:00Z,29.4412,-92.0613,10.0,4.7,260.0,,'11111222,11111222,99999999' 
WAVCIS,ioos:station:WAVCIS:CSI03:3,2016-04-07T00:00:00Z,29.4412,-92.0613,10.0,3.774,257.0,,'11111222,11111222,99999999' 
WAVCIS,ioos:station:WAVCIS:CSI03:3,2016-04-07T01:00:00Z,29.4412,-92.0613,10.0,4.513,255.0,,'11111222,11111222,99999999' 
WAVCIS,ioos:station:WAVCIS:CSI03:3,2016-04-07T02:00:00Z,29.4412,-92.0613,10.0,5.021,258.0,,'11111222,11111222,99999999' 
WAVCIS,ioos:station:WAVCIS:CSI03:3,2016-04-07T03:00:00Z,29.4412,-92.0613,10.0,7.92,261.0,,'11111222,11111222,99999999' 
WAVCIS,ioos:station:WAVCIS:CSI03:3,2016-04-07T04:00:00Z,29.4412,-92.0613,10.0,9.13,261.0,,'11111222,11111222,99999999' 
WAVCIS,ioos:station:WAVCIS:CSI03:3,2016-04-07T05:00:00Z,29.4412,-92.0613,10.0,8.88,280.0,,'11111222,11111222,99999999' 
WAVCIS,ioos:station:WAVCIS:CSI03:3,2016-04-07T06:00:00Z,29.4412,-92.0613,10.0,9.6,297.0,,'11111222,11111222,99999999' 
WAVCIS,ioos:station:WAVCIS:CSI03:3,2016-04-07T07:00:00Z,29.4412,-92.0613,10.0,5.34,301.0,,'11111222,11111222,99999999' 
WAVCIS,ioos:station:WAVCIS:CSI03:3,2016-04-07T08:00:00Z,29.4412,-92.0613,10.0,7.25,324.0,,'11111222,11111222,99999999' 
WAVCIS,ioos:station:WAVCIS:CSI03:3,2016-04-07T09:00:00Z,29.4412,-92.0613,10.0,6.829,325.0,,'11111222,11111222,99999999' 
WAVCIS,ioos:station:WAVCIS:CSI03:3,2016-04-07T10:00:00Z,29.4412,-92.0613,10.0,6.491,325.0,,'11111222,11111222,99999999' 
WAVCIS,ioos:station:WAVCIS:CSI03:3,2016-04-07T11:00:00Z,29.4412,-92.0613,10.0,6.649,332.0,,'11111222,11111222,99999999' 
WAVCIS,ioos:station:WAVCIS:CSI03:3,2016-04-07T12:00:00Z,29.4412,-92.0613,10.0,6.372,334.0,,'11111222,11111222,99999999' 
WAVCIS,ioos:station:WAVCIS:CSI03:3,2016-04-07T13:00:00Z,29.4412,-92.0613,10.0,5.627,334.0,,'11111222,11111222,99999999' 
WAVCIS,ioos:station:WAVCIS:CSI03:3,2016-04-07T14:00:00Z,29.4412,-92.0613,10.0,3.61,334.0,,'11111222,11111222,99999999' 
WAVCIS,ioos:station:WAVCIS:CSI03:3,2016-04-07T15:00:00Z,29.4412,-92.0613,10.0,2.117,334.0,,'11111222,11111222,99999999' 
WAVCIS,ioos:station:WAVCIS:CSI03:3,2016-04-07T16:00:00Z,29.4412,-92.0613,10.0,0.856,334.0,,'11111222,11111222,99999999' 
WAVCIS,ioos:station:WAVCIS:CSI03:3,2016-04-07T17:00:00Z,29.4412,-92.0613,10.0,1.644,334.0,,'11111222,11111222,99999999' 
WAVCIS,ioos:station:WAVCIS:CSI03:3,2016-04-07T18:00:00Z,29.4412,-92.0613,10.0,0.608,334.0,,'11111222,11111222,99999999' 
WAVCIS,ioos:station:WAVCIS:CSI03:3,2016-04-07T19:00:00Z,29.4412,-92.0613,10.0,1.009,334.0,,'11111222,11111222,99999999' 
WAVCIS,ioos:station:WAVCIS:CSI03:3,2016-04-07T20:00:00Z,29.4412,-92.0613,10.0,3.088,260.0,,'11111222,11111222,99999999' 
WAVCIS,ioos:station:WAVCIS:CSI03:3,2016-04-07T21:00:00Z,29.4412,-92.0613,10.0,3.148,253.0,,'11111222,11111222,99999999' 
WAVCIS,ioos:station:WAVCIS:CSI03:3,2016-04-07T22:00:00Z,29.4412,-92.0613,10.0,4.306,261.0,,'11111222,11111222,99999999' 
WAVCIS,ioos:station:WAVCIS:CSI03:3,2016-04-07T23:00:00Z,29.4412,-92.0613,10.0,5.913,282.0,,'11111222,11111222,99999999' 
WAVCIS,ioos:station:WAVCIS:CSI03:3,2016-04-08T00:00:00Z,29.4412,-92.0613,10.0,5.475,281.0,,'11111222,11111222,99999999' 
WAVCIS,ioos:station:WAVCIS:CSI03:3,2016-04-08T01:00:00Z,29.4412,-92.0613,10.0,5.728,289.0,,'11111222,11111222,99999999' 
WAVCIS,ioos:station:WAVCIS:CSI03:3,2016-04-08T02:00:00Z,29.4412,-92.0613,10.0,5.201,291.0,,'11111222,11111222,99999999' 
WAVCIS,ioos:station:WAVCIS:CSI03:3,2016-04-08T03:00:00Z,29.4412,-92.0613,10.0,4.552,290.0,,'11111222,11111222,99999999' 
WAVCIS,ioos:station:WAVCIS:CSI03:3,2016-04-08T04:00:00Z,29.4412,-92.0613,10.0,4.831,286.0,,'11111222,11111222,99999999' 
WAVCIS,ioos:station:WAVCIS:CSI03:3,2016-04-08T05:00:00Z,29.4412,-92.0613,10.0,5.408,284.0,,'11111222,11111222,99999999' 
WAVCIS,ioos:station:WAVCIS:CSI03:3,2016-04-08T06:00:00Z,29.4412,-92.0613,10.0,5.229,290.0,,'11111222,11111222,99999999' 
WAVCIS,ioos:station:WAVCIS:CSI03:3,2016-04-08T07:00:00Z,29.4412,-92.0613,10.0,4.938,295.0,,'11111222,11111222,99999999' 
WAVCIS,ioos:station:WAVCIS:CSI03:3,2016-04-08T08:00:00Z,29.4412,-92.0613,10.0,5.408,293.0,,'11111222,11111222,99999999' 
WAVCIS,ioos:station:WAVCIS:CSI03:3,2016-04-08T09:00:00Z,29.4412,-92.0613,10.0,5.004,300.0,,'11111222,11111222,99999999' 
WAVCIS,ioos:station:WAVCIS:CSI03:3,2016-04-08T10:00:00Z,29.4412,-92.0613,10.0,5.58,322.0,,'11111222,11111222,99999999' 
WAVCIS,ioos:station:WAVCIS:CSI03:3,2016-04-08T11:00:00Z,29.4412,-92.0613,10.0,8.99,332.0,,'11111222,11111222,99999999' 
WAVCIS,ioos:station:WAVCIS:CSI03:3,2016-04-08T12:00:00Z,29.4412,-92.0613,10.0,9.64,334.0,,'11111222,11111222,99999999' 
WAVCIS,ioos:station:WAVCIS:CSI03:3,2016-04-08T13:00:00Z,29.4412,-92.0613,10.0,5.783,354.0,,'11111222,11111222,99999999' 
WAVCIS,ioos:station:WAVCIS:CSI03:3,2016-04-08T14:00:00Z,29.4412,-92.0613,10.0,6.588,36.0,,'11111222,11111222,99999999' 
WAVCIS,ioos:station:WAVCIS:CSI03:3,2016-04-08T15:00:00Z,29.4412,-92.0613,10.0,7.03,37.0,,'11111222,11111222,99999999' 
WAVCIS,ioos:station:WAVCIS:CSI03:3,2016-04-08T16:00:00Z,29.4412,-92.0613,10.0,7.67,37.0,,'11111222,11111222,99999999' 
WAVCIS,ioos:station:WAVCIS:CSI03:3,2016-04-08T17:00:00Z,29.4412,-92.0613,10.0,5.418,37.0,,'11111222,11111222,99999999' 
WAVCIS,ioos:station:WAVCIS:CSI03:3,2016-04-08T18:00:00Z,29.4412,-92.0613,10.0,4.613,36.0,,'11111222,11111222,99999999' 
WAVCIS,ioos:station:WAVCIS:CSI03:3,2016-04-08T19:00:00Z,29.4412,-92.0613,10.0,3.862,36.0,,'11111222,11111222,99999999' 
WAVCIS,ioos:station:WAVCIS:CSI03:3,2016-04-08T20:00:00Z,29.4412,-92.0613,10.0,3.085,36.0,,'11111222,11111222,99999999' 
WAVCIS,ioos:station:WAVCIS:CSI03:3,2016-04-08T21:00:00Z,29.4412,-92.0613,10.0,3.269,36.0,,'11111222,11111222,99999999' 
WAVCIS,ioos:station:WAVCIS:CSI03:3,2016-04-08T22:00:00Z,29.4412,-92.0613,10.0,3.971,36.0,,'11111222,11111222,99999999' 
WAVCIS,ioos:station:WAVCIS:CSI03:3,2016-04-08T23:00:00Z,29.4412,-92.0613,10.0,3.829,36.0,,'11111222,11111222,99999999' 
WAVCIS,ioos:station:WAVCIS:CSI03:3,2016-04-09T00:00:00Z,29.4412,-92.0613,10.0,3.306,36.0,,'11111222,11111222,99999999' 
WAVCIS,ioos:station:WAVCIS:CSI03:3,2016-04-09T01:00:00Z,29.4412,-92.0613,10.0,3.173,32.0,,'11111222,11111222,99999999' 
WAVCIS,ioos:station:WAVCIS:CSI03:3,2016-04-09T02:00:00Z,29.4412,-92.0613,10.0,2.688,21.0,,'11111222,11111222,99999999' 
WAVCIS,ioos:station:WAVCIS:CSI03:3,2016-04-09T03:00:00Z,29.4412,-92.0613,10.0,4.063,22.0,,'11111222,11111222,99999999' 
WAVCIS,ioos:station:WAVCIS:CSI03:3,2016-04-09T04:00:00Z,29.4412,-92.0613,10.0,3.938,36.0,,'11111222,11111222,99999999' 
WAVCIS,ioos:station:WAVCIS:CSI03:3,2016-04-09T05:00:00Z,29.4412,-92.0613,10.0,5.28,47.0,,'11111222,11111222,99999999' 